Surface/Precipitation History
02/23/2017 01:03  to  2/24/2017 01:03
Change End Date:
Date/Time
(MST)
Sf
Temp Chem Water Layer Surface Precipitation
Sfc Pvt Sub Frz Factor Pct Dpth DpthThk IcePct Cond Salin FI Type Intens Accum Rate
02/24/2017 00:54 Ice Warning 18.3F - 32F 32F 95 0% - - 100% 0 mhos 83 - None None - -
02/24/2017 00:48 Ice Warning 17.8F - 32F 32F 95 0% - - 100% 0 mhos 83 - None None - -
02/24/2017 00:39 Ice Warning 18.0F - 32F 32F 95 0% - - 100% 0 mhos 80 - Yes - - -
02/24/2017 00:38 Ice Warning 18.0F - 32F 32F 95 0% - - 100% 0 mhos 80 - None None - -
02/24/2017 00:27 Ice Warning 18.1F - 32F 32F 95 0% - - 100% 0 mhos 78 - None None - -
02/24/2017 00:24 Ice Warning 18.3F - 32F 32F 95 0% - - 100% 0 mhos 77 - None None - -
02/24/2017 00:17 Ice Warning 18.3F - 32F 32F 95 0% - - 100% 0 mhos 75 - None None - -
02/24/2017 00:09 Ice Warning 18.9F - 32F 32F 95 0% - - 100% 0 mhos 73 - Yes - - -
02/24/2017 00:07 Ice Warning 18.9F - 32F 32F 95 0% - - 100% 0 mhos 73 - Yes - - -
02/23/2017 23:57 Ice Warning 19.4F - 32F 32F 95 0% - - 100% 0 mhos 70 - Yes - - -
02/23/2017 23:54 Ice Warning 19.8F - 32F 32F 95 0% - - 100% 0 mhos 69 - None None - -
02/23/2017 23:47 Ice Warning 20.1F - 32F 32F 95 0% - - 100% 0 mhos 67 - None None - -
02/23/2017 23:39 Ice Warning 20.5F - 32F 32F 95 0% - - 100% 0 mhos 65 - Yes - - -
02/23/2017 23:37 Ice Warning 20.5F - 32F 32F 95 0% - - 100% 0 mhos 65 - None None - -
02/23/2017 23:27 Ice Warning 21.0F - 32F 32F 90 0% - - 100% 0 mhos 63 - Yes - - -
Date/Time
(MST)
Sf
Temp Chem Water Layer Surface Precipitation
Sfc Pvt Sub Frz Factor Pct Dpth DpthThk IcePct Cond Salin FI Type Intens Accum Rate
02/23/2017 23:24 Ice Warning 21.2F - 32F 32F 95 0% - - 100% 0 mhos 62 - Yes - - -
02/23/2017 23:17 Ice Warning 21.4F - 32F 32F 95 0% - - 100% 0 mhos 61 - Yes - - -
02/23/2017 23:09 Ice Warning 21.4F - 32F 32F 90 0% - - 100% 0 mhos 60 - Yes - - -
02/23/2017 23:07 Ice Warning 21.4F - 32F 32F 90 0% - - 100% 0 mhos 60 - Yes - - -
02/23/2017 22:57 Ice Warning 21.6F - 32F 32F 90 0% - - 100% 0 mhos 58 - None None - -
02/23/2017 22:54 Ice Warning 21.6F - 32F 32F 90 0% - - 100% 0 mhos 57 - None None - -
02/23/2017 22:47 Ice Warning 21.7F - 32F 32F 90 0% - - 100% 0 mhos 56 - None None - -
02/23/2017 22:39 Ice Warning 21.9F - 32F 32F 90 0% - - 100% 0 mhos 54 - None None - -
02/23/2017 22:37 Ice Warning 21.9F - 32F 32F 90 0% - - 100% 0 mhos 54 - None None - -
02/23/2017 22:27 Ice Warning 22.1F - 32F 32F 90 0% - - 100% 0 mhos 52 - Yes - - -
02/23/2017 22:24 Ice Warning 22.1F - 32F 32F 90 0% - - 100% 0 mhos 51 - None None - -
02/23/2017 22:17 Ice Warning 22.3F - 32F 32F 90 0% - - 100% 0 mhos 50 - None None - -
02/23/2017 22:09 Ice Warning 22.5F - 32F 32F 90 0% - - 100% 0 mhos 48 - None None - -
02/23/2017 22:07 Ice Warning 22.5F - 32F 32F 85 0% - - 100% 0 mhos 48 - None None - -
02/23/2017 21:57 Ice Warning 22.5F - 32F 32F 85 0% - - 100% 0 mhos 46 - None None - -
Date/Time
(MST)
Sf
Temp Chem Water Layer Surface Precipitation
Sfc Pvt Sub Frz Factor Pct Dpth DpthThk IcePct Cond Salin FI Type Intens Accum Rate
02/23/2017 21:54 Ice Warning 22.6F - 32F 32F 85 0% - - 100% 0 mhos 45 - None None - -
02/23/2017 21:47 Ice Warning 22.6F - 32F 32F 85 0% - - 100% 0 mhos 44 - None None - -
02/23/2017 21:39 Ice Warning 22.8F - 32F 32F 85 0% - - 100% 0 mhos 42 - None None - -
02/23/2017 21:37 Ice Warning 22.8F - 32F 32F 85 0% - - 100% 0 mhos 42 - None None - -
02/23/2017 21:27 Ice Warning 23.2F - 32F 32F 85 0% - - 100% 0 mhos 40 - None None - -
02/23/2017 21:24 Ice Warning 23.4F - 32F 32F 85 0% - - 100% 0 mhos 39 - None None - -
02/23/2017 21:17 Ice Warning 23.5F - 32F 32F 80 0% - - 100% 0 mhos 37 - None None - -
02/23/2017 21:09 Ice Warning 23.5F - 32F 32F 80 0% - - 100% 0 mhos 36 - None None - -
02/23/2017 21:07 Ice Warning 23.5F - 32F 32F 80 0% - - 100% 0 mhos 36 - Yes - - -
02/23/2017 20:57 Ice Warning 23.9F - 32F 32F 80 0% - - 100% 0 mhos 33 - None None - -
02/23/2017 20:54 Ice Warning 24.1F - 32F 32F 75 0% - - 100% 0 mhos 33 - None None - -
02/23/2017 20:47 Ice Warning 24.3F - 32F 32F 75 0% - - 100% 0 mhos 31 - Yes - - -
02/23/2017 20:39 Ice Warning 24.4F - 32F 32F 80 0% - - 100% 0 mhos 30 - Yes - - -
02/23/2017 20:37 Ice Warning 24.6F - 32F 32F 75 0% - - 100% 0 mhos 29 - Yes - - -
02/23/2017 20:27 Ice Warning 24.8F - 32F 32F 75 0% - - 100% 0 mhos 28 - None None - -
Date/Time
(MST)
Sf
Temp Chem Water Layer Surface Precipitation
Sfc Pvt Sub Frz Factor Pct Dpth DpthThk IcePct Cond Salin FI Type Intens Accum Rate
02/23/2017 20:24 Ice Warning 25.0F - 32F 32F 75 0% - - 100% 0 mhos 27 - Yes - - -
02/23/2017 20:17 Ice Warning 25.2F - 32F 32F 70 0% - - 100% 0 mhos 26 - Yes - - -
02/23/2017 20:09 Ice Warning 25.5F - 32F 32F 70 0% - - 100% 0 mhos 25 - Yes - - -
02/23/2017 20:07 Ice Warning 25.5F - 32F 32F 70 0% - - 100% 0 mhos 25 - None None - -
02/23/2017 19:57 Ice Warning 25.7F - 32F 32F 70 0% - - 100% 0 mhos 23 - Yes - - -
02/23/2017 19:54 Ice Warning 25.7F - 32F 32F 70 0% - - 100% 0 mhos 23 - None None - -
02/23/2017 19:47 Ice Warning 25.7F - 32F 32F 70 0% - - 100% 0 mhos 22 - None None - -
02/23/2017 19:39 Ice Warning 26.1F - 32F 32F 70 0% - - 100% 0 mhos 20 - None None - -
02/23/2017 19:37 Ice Warning 26.1F - 32F 32F 70 0% - - 100% 0 mhos 20 - Yes - - -
02/23/2017 19:26 Ice Warning 26.6F - 32F 32F 70 0% - - 100% 0 mhos 19 - None None - -
02/23/2017 19:24 Ice Warning 26.8F - 32F 32F 70 0% - - 100% 0 mhos 18 - Yes - - -
02/23/2017 19:16 Ice Warning 27.0F - 32F 32F 70 0% - - 100% 0 mhos 17 - None None - -
02/23/2017 19:09 Ice Warning 27.5F - 32F 32F 65 0% - - 100% 0 mhos 16 - Yes - - -
02/23/2017 19:06 Ice Warning 27.7F - 32F 32F 65 0% - - 100% 0 mhos 16 - Yes - - -
02/23/2017 18:56 Ice Warning 28.4F - 32F 32F 65 0% - - 100% 0 mhos 16 - None None - -
Date/Time
(MST)
Sf
Temp Chem Water Layer Surface Precipitation
Sfc Pvt Sub Frz Factor Pct Dpth DpthThk IcePct Cond Salin FI Type Intens Accum Rate
02/23/2017 18:54 Ice Warning 28.6F - 32F 32F 65 0% - - 100% 0 mhos 16 - Yes - - -
02/23/2017 18:46 Ice Warning 29.3F - 32F 32F 80 0% - - 100% 0 mhos 16 - None None - -
02/23/2017 18:39 Ice Warning 30.2F - 32F 32F 75 0% - - 100% 0 mhos 19 - Yes - - -
02/23/2017 18:36 Ice Warning 30.4F - 32F 32F 75 0% - - 99% 0 mhos 21 - None None - -
02/23/2017 18:26 Ice Warning 31.5F - 32F 32F 75 0% - - 98% 0 mhos 25 - Yes - - -
02/23/2017 18:23 Ice Warning 31.5F - 32F 32F 75 0% - - 98% 0 mhos 25 - Yes - - -
02/23/2017 18:16 Ice Warning 31.5F - 32F 32F 75 0% - - 98% 0 mhos 26 - None None - -
02/23/2017 18:08 Ice Warning 31.5F - 32F 32F 75 0% - - 98% 0 mhos 26 - Yes - - -
02/23/2017 18:06 Ice Warning 31.5F - 32F 32F 75 0% - - 98% 0 mhos 26 - Yes - - -
02/23/2017 17:56 Ice Warning 31.6F - 32F 32F 70 0% - - 97% 0 mhos 26 - Yes - - -
02/23/2017 17:53 Ice Warning 31.8F - 32F 32F 75 0% - - 93% 0 mhos 27 - Yes - - -
02/23/2017 17:46 Ice Warning 31.8F - 32F 32F 65 0% - - 93% 0 mhos 28 - Yes - - -
02/23/2017 17:38 Ice Warning 31.8F - 32F 32F 95 0% - - 92% 0 mhos 32 - Yes - - -
02/23/2017 17:36 Ice Warning 31.8F - 32F 32F 95 0% - - 92% 0 mhos 32 - Yes - - -
02/23/2017 17:26 Ice Warning 31.8F - 32F 32F 95 0% - - 92% 0 mhos 32 - Yes - - -
Date/Time
(MST)
Sf
Temp Chem Water Layer Surface Precipitation
Sfc Pvt Sub Frz Factor Pct Dpth DpthThk IcePct Cond Salin FI Type Intens Accum Rate
02/23/2017 17:23 Ice Warning 31.8F - 32F 32F 95 0% - - 92% 0 mhos 32 - Yes - - -
02/23/2017 17:16 Ice Warning 31.8F - 32F 32F 95 0% - - 92% 0 mhos 32 - Yes - - -
02/23/2017 17:08 Ice Warning 31.8F - 32F 32F 95 0% - - 92% 0 mhos 32 - Yes - - -
02/23/2017 17:06 Ice Warning 31.8F - 32F 32F 95 0% - - 92% 0 mhos 32 - Yes - - -
02/23/2017 16:56 Ice Warning 31.8F - 32F 32F 95 0% - - 92% 0 mhos 34 - Yes - - -
02/23/2017 16:53 Ice Warning 31.8F - 32F 32F 95 0% - - 92% 0 mhos 34 - Yes - - -
02/23/2017 16:46 Ice Warning 31.8F - 32F 32F 95 0% - - 91% 0 mhos 36 - Yes - - -
02/23/2017 16:38 Ice Warning 31.8F - 32F 32F 95 0% - - 91% 0 mhos 36 - Yes - - -
02/23/2017 16:36 Ice Warning 31.8F - 32F 32F 95 0% - - 91% 0 mhos 36 - Yes - - -
02/23/2017 16:26 Ice Warning 31.8F - 32F 32F 95 0% - - 91% 0 mhos 36 - Yes - - -
02/23/2017 16:23 Ice Warning 31.8F - 32F 32F 95 0% - - 91% 0 mhos 36 - Yes - - -
02/23/2017 16:16 Ice Warning 31.8F - 32F 32F 95 0% - - 91% 0 mhos 37 - Yes - - -
02/23/2017 16:08 Ice Warning 31.8F - 32F 32F 95 0% - - 91% 0 mhos 37 - Yes - - -
02/23/2017 16:06 Ice Warning 31.8F - 32F 32F 95 0% - - 91% 0 mhos 35 - Yes - - -
02/23/2017 15:56 Chemically Wet 32.0F - 32F 32F 95 0% 0.20 in - 0% 1 mhos 56 - Yes - - -
Date/Time
(MST)
Sf
Temp Chem Water Layer Surface Precipitation
Sfc Pvt Sub Frz Factor Pct Dpth DpthThk IcePct Cond Salin FI Type Intens Accum Rate
02/23/2017 15:53 Chemically Wet 32.0F - 32F 32F 95 0% 0.10 in - 0% 1 mhos 59 - Yes - - -
02/23/2017 15:46 Chemically Wet 32.0F - 32F 32F 95 0% 0.00 in - 0% 1 mhos 73 - Yes - - -
02/23/2017 15:38 Chemically Wet 32.0F - 32F 32F 95 0% 0.00 in - 0% 1 mhos 94 - Yes - - -
02/23/2017 15:36 Chemically Wet 32.0F - 32F 32F 65 0% 0.00 in - 0% 1 mhos 74 - Yes - - -
02/23/2017 15:26 Wet 32.2F - 32F 32F 95 0% 0.00 in - 0% 1 mhos 76 - Yes - - -
02/23/2017 15:23 Wet 32.2F - 32F 32F 95 0% 0.00 in - 0% 1 mhos 76 - Yes - - -
02/23/2017 15:16 Wet 32.2F - 32F 32F 95 0% 0.00 in - 0% 1 mhos 68 - Yes - - -
02/23/2017 15:08 Chemically Wet 32.0F - 32F 32F 95 0% 0.20 in - 0% 1 mhos 64 - Yes - - -
02/23/2017 15:06 Chemically Wet 32.0F - 32F 32F 95 0% 0.00 in - 0% 1 mhos 64 - Yes - - -
02/23/2017 14:56 Chemically Wet 32.0F - 32F 32F 95 0% 0.10 in - 0% 1 mhos 58 - Yes - - -
02/23/2017 14:53 Chemically Wet 32.0F - 32F 32F 95 0% 0.00 in - 0% 1 mhos 59 - Yes - - -
02/23/2017 14:46 Chemically Wet 32.0F - 32F 32F 10 0% 0.00 in - 0% 1 mhos 92 - Yes - - -
02/23/2017 14:38 Chemically Wet 32.0F - 32F 32F 5 0% 0.00 in - 0% 1 mhos 93 - Yes - - -
02/23/2017 14:36 Chemically Wet 32.0F - 32F 32F 5 0% 0.00 in - 0% 1 mhos 93 - Yes - - -
02/23/2017 14:26 Chemically Wet 32.0F - 32F 32F 20 0% 0.00 in - 0% 1 mhos 122 - Yes - - -
Date/Time
(MST)
Sf
Temp Chem Water Layer Surface Precipitation
Sfc Pvt Sub Frz Factor Pct Dpth DpthThk IcePct Cond Salin FI Type Intens Accum Rate
02/23/2017 14:23 Chemically Wet 32.0F - 32F 32F 20 0% 0.00 in - 0% 1 mhos 118 - Yes - - -
02/23/2017 14:16 Chemically Wet 31.8F - 32F 32F 15 0% - - 71% 1 mhos 118 - Yes - - -
02/23/2017 14:08 Chemically Wet 31.8F - 32F 32F 25 0% - - 71% 1 mhos 118 - Yes - - -
02/23/2017 14:06 Chemically Wet 31.8F - 32F 32F 40 0% - - 71% 1 mhos 117 - Yes - - -
02/23/2017 13:55 Chemically Wet 32.0F - 32F 32F 95 0% 0.00 in - 0% 1 mhos 146 - Yes - - -
02/23/2017 13:53 Chemically Wet 31.8F - 32F 32F 95 0% - - 63% 1 mhos 147 - Yes - - -
02/23/2017 13:45 Chemically Wet 31.8F - 32F 32F 95 1% - - 62% 2 mhos 154 - Yes - - -
02/23/2017 13:38 Chemically Wet 31.8F - 32F 32F 95 1% 0.00 in - 0% 2 mhos 232 - Yes - - -
02/23/2017 13:35 Chemically Wet 31.8F - 32F 32F 95 1% 0.00 in - 0% 2 mhos 232 - Yes - - -
02/23/2017 13:25 Chemically Wet 31.8F - 32F 32F 95 1% 0.00 in - 0% 2 mhos 229 - Yes - - -
02/23/2017 13:23 Chemically Wet 31.8F - 32F 32F 95 1% 0.00 in - 0% 2 mhos 229 - Yes - - -
02/23/2017 13:15 Chemically Wet 32.0F - 32F 32F 95 1% 0.00 in - 0% 2 mhos 213 - Yes - - -
02/23/2017 13:08 Chemically Wet 31.8F - 32F 32F 95 1% - - 58% 2 mhos 167 - Yes - - -
02/23/2017 13:05 Chemically Wet 31.6F - 32F 32F 95 1% - - 74% 2 mhos 202 - Yes - - -
02/23/2017 12:55 Chemically Wet 32.0F - 32F 32F 95 1% 0.00 in - 0% 3 mhos 323 - Yes - - -
Date/Time
(MST)
Sf
Temp Chem Water Layer Surface Precipitation
Sfc Pvt Sub Frz Factor Pct Dpth DpthThk IcePct Cond Salin FI Type Intens Accum Rate
02/23/2017 12:53 Wet 32.5F - 32F 32F 95 1% 0.00 in - 0% 4 mhos 395 - Yes - - -
02/23/2017 12:45 Wet 33.3F - 32F 32F 95 1% 0.00 in - 0% 4 mhos 428 - Yes - - -
02/23/2017 12:38 Wet 33.8F - 32F 32F 95 1% 0.00 in - 0% 4 mhos 437 - Yes - - -
02/23/2017 12:35 Wet 33.8F - 32F 32F 95 1% 0.00 in - 0% 4 mhos 431 - Yes - - -
02/23/2017 12:25 Wet 34.2F - 32F 32F 95 2% 0.00 in - 0% 5 mhos 493 - Yes - - -
02/23/2017 12:23 Wet 34.2F - 32F 32F 95 2% 0.00 in - 0% 5 mhos 496 - Yes - - -
02/23/2017 12:15 Wet 33.8F - 32F 32F 95 2% 0.00 in - 0% 5 mhos 453 - Yes - - -
02/23/2017 12:08 Wet 34.0F - 32F 32F 95 2% 0.00 in - 0% 5 mhos 456 - Yes - - -
02/23/2017 12:05 Wet 34.2F - 32F 32F 95 2% 0.00 in - 0% 5 mhos 456 - Yes - - -
02/23/2017 11:55 Wet 34.0F - 32F 32F 95 2% 0.00 in - 0% 5 mhos 456 - Yes - - -
02/23/2017 11:53 Wet 34.2F - 32F 32F 95 2% 0.00 in - 0% 5 mhos 456 - Yes - - -
02/23/2017 11:45 Wet 34.7F - 32F 32F 95 2% 0.00 in - 0% 5 mhos 465 - Yes - - -
02/23/2017 11:38 Wet 35.4F - 32F 32F 95 2% 0.00 in - 0% 5 mhos 470 - Yes - - -
02/23/2017 11:35 Wet 35.6F - 32F 32F 95 2% 0.00 in - 0% 5 mhos 475 - Yes - - -
02/23/2017 11:25 Wet 35.1F - 32F 32F 95 2% 0.00 in - 0% 5 mhos 476 - Yes - - -
Date/Time
(MST)
Sf
Temp Chem Water Layer Surface Precipitation
Sfc Pvt Sub Frz Factor Pct Dpth DpthThk IcePct Cond Salin FI Type Intens Accum Rate
02/23/2017 11:23 Wet 34.9F - 32F 32F 95 2% 0.00 in - 0% 5 mhos 473 - Yes - - -
02/23/2017 11:15 Wet 34.5F - 32F 32F 95 2% 0.00 in - 0% 5 mhos 524 - Yes - - -
02/23/2017 11:08 Wet 34.5F - 32F 32F 95 2% 0.00 in - 0% 5 mhos 520 - Yes - - -
02/23/2017 11:05 Wet 34.7F - 32F 32F 95 2% 0.00 in - 0% 5 mhos 521 - Yes - - -
02/23/2017 10:55 Wet 34.2F - 32F 32F 95 2% 0.00 in - 0% 5 mhos 524 - Yes - - -
02/23/2017 10:53 Wet 34.3F - 32F 32F 95 2% 0.00 in - 0% 5 mhos 532 - Yes - - -
02/23/2017 10:45 Wet 34.0F - 32F 32F 95 2% 0.00 in - 0% 5 mhos 542 - Yes - - -
02/23/2017 10:38 Wet 32.9F - 32F 32F 95 2% 0.00 in - 0% 5 mhos 538 - Yes - - -
02/23/2017 10:35 Wet 32.4F - 32F 31F 95 2% 0.00 in - 0% 6 mhos 560 - Yes - - -
02/23/2017 10:25 Chemically Wet 31.8F - 32F 31F 95 2% 0.00 in - 0% 6 mhos 563 - Yes - - -
02/23/2017 10:23 Chemically Wet 31.6F - 32F 31F 95 2% 0.00 in - 0% 5 mhos 559 - Yes - - -
02/23/2017 10:15 Chemically Wet 31.3F - 32F 32F 95 2% - - 73% 5 mhos 512 - Yes - - -
02/23/2017 10:08 Ice Warning 30.6F - 32F 32F 95 1% - - 89% 3 mhos 344 - Yes - - -
02/23/2017 10:05 Ice Warning 30.4F - 32F 32F 95 1% - - 92% 3 mhos 288 - None None - -
02/23/2017 09:55 Ice Warning 30.0F - 32F 32F 95 1% - - 95% 2 mhos 227 - Yes - - -
Date/Time
(MST)
Sf
Temp Chem Water Layer Surface Precipitation
Sfc Pvt Sub Frz Factor Pct Dpth DpthThk IcePct Cond Salin FI Type Intens Accum Rate
02/23/2017 09:53 Ice Warning 30.0F - 32F 32F 95 1% - - 95% 2 mhos 225 - Yes - - -
02/23/2017 09:45 Ice Warning 29.5F - 32F 32F 95 1% - - 96% 2 mhos 217 - Yes - - -
02/23/2017 09:38 Ice Warning 29.1F - 32F 32F 95 1% - - 96% 2 mhos 208 - Yes - - -
02/23/2017 09:34 Ice Warning 29.1F - 32F 32F 95 1% - - 97% 2 mhos 203 - Yes - - -
02/23/2017 09:24 Ice Warning 28.2F - 32F 32F 95 1% - - 97% 1 mhos 198 - Yes - - -
02/23/2017 09:23 Ice Warning 28.2F - 32F 32F 95 1% - - 97% 1 mhos 198 - Yes - - -
02/23/2017 09:14 Ice Warning 28.0F - 32F 32F 95 1% - - 97% 2 mhos 211 - Yes - - -
02/23/2017 09:08 Ice Warning 27.5F - 32F 32F 95 1% - - 97% 2 mhos 218 - Yes - - -
02/23/2017 09:04 Ice Warning 27.3F - 32F 32F 95 1% - - 97% 1 mhos 220 - Yes - - -
02/23/2017 08:54 Ice Warning 27.1F - 32F 32F 95 1% - - 97% 1 mhos 223 - Yes - - -
02/23/2017 08:53 Ice Warning 27.1F - 32F 32F 95 1% - - 97% 1 mhos 222 - Yes - - -
02/23/2017 08:44 Ice Warning 26.8F - 32F 32F 95 1% - - 98% 2 mhos 230 - Yes - - -
02/23/2017 08:38 Ice Warning 26.8F - 32F 32F 95 1% - - 98% 2 mhos 233 - Yes - - -
02/23/2017 08:34 Ice Warning 26.6F - 32F 32F 95 1% - - 98% 1 mhos 234 - Yes - - -
02/23/2017 08:24 Ice Warning 25.9F - 32F 32F 95 1% - - 98% 2 mhos 251 - Yes - - -
Date/Time
(MST)
Sf
Temp Chem Water Layer Surface Precipitation
Sfc Pvt Sub Frz Factor Pct Dpth DpthThk IcePct Cond Salin FI Type Intens Accum Rate
02/23/2017 08:23 Ice Warning 25.9F - 32F 32F 95 1% - - 98% 2 mhos 253 - Yes - - -
02/23/2017 08:14 Ice Warning 25.7F - 32F 32F 95 1% - - 98% 2 mhos 265 - Yes - - -
02/23/2017 08:08 Ice Warning 25.5F - 32F 32F 95 1% - - 98% 2 mhos 270 - Yes - - -
02/23/2017 08:04 Ice Warning 25.3F - 32F 32F 95 1% - - 98% 2 mhos 272 - Yes - - -
02/23/2017 07:54 Ice Warning 24.8F - 32F 32F 95 1% - - 98% 2 mhos 280 - Yes - - -
02/23/2017 07:53 Ice Warning 24.8F - 32F 32F 95 1% - - 98% 2 mhos 280 - Yes - - -
02/23/2017 07:44 Ice Warning 24.6F - 32F 32F 95 1% - - 98% 2 mhos 286 - Yes - - -
02/23/2017 07:38 Ice Warning 24.4F - 32F 32F 95 1% - - 98% 2 mhos 289 - Yes - - -
02/23/2017 07:34 Ice Warning 24.4F - 32F 32F 95 1% - - 98% 2 mhos 286 - Yes - - -
02/23/2017 07:24 Ice Warning 24.1F - 32F 32F 95 1% - - 98% 2 mhos 292 - Yes - - -
02/23/2017 07:23 Ice Warning 24.3F - 32F 32F 95 1% - - 98% 2 mhos 288 - Yes - - -
02/23/2017 07:14 Ice Warning 24.1F - 32F 32F 95 1% - - 98% 1 mhos 288 - Yes - - -
02/23/2017 07:08 Ice Warning 24.3F - 32F 32F 95 1% - - 98% 1 mhos 277 - Yes - - -
02/23/2017 07:04 Ice Warning 24.3F - 32F 32F 95 1% - - 98% 1 mhos 275 - None None - -
02/23/2017 06:54 Ice Warning 24.3F - 32F 32F 95 1% - - 98% 1 mhos 275 - Yes - - -
Date/Time
(MST)
Sf
Temp Chem Water Layer Surface Precipitation
Sfc Pvt Sub Frz Factor Pct Dpth DpthThk IcePct Cond Salin FI Type Intens Accum Rate
02/23/2017 06:53 Ice Warning 24.3F - 32F 32F 95 1% - - 98% 1 mhos 275 - Yes - - -
02/23/2017 06:44 Ice Warning 24.3F - 32F 32F 95 1% - - 98% 1 mhos 270 - None None - -
02/23/2017 06:39 Ice Warning 24.3F - 32F 32F 95 1% - - 98% 1 mhos 270 - Yes - - -
02/23/2017 06:34 Ice Warning 24.4F - 32F 32F 95 1% - - 98% 1 mhos 266 - Yes - - -
02/23/2017 06:24 Ice Warning 24.3F - 32F 32F 95 1% - - 98% 1 mhos 265 - None None - -
02/23/2017 06:24 Ice Warning 24.4F - 32F 32F 95 1% - - 98% 1 mhos 263 - None None - -
02/23/2017 06:14 Ice Warning 24.4F - 32F 32F 95 1% - - 98% 1 mhos 258 - None None - -
02/23/2017 06:09 Ice Warning 24.6F - 32F 32F 95 1% - - 98% 1 mhos 253 - None None - -
02/23/2017 06:04 Ice Warning 24.6F - 32F 32F 95 1% - - 98% 1 mhos 256 - None None - -
02/23/2017 05:54 Ice Warning 24.6F - 32F 32F 95 1% - - 98% 1 mhos 250 - None None - -
02/23/2017 05:54 Ice Warning 24.6F - 32F 32F 95 1% - - 98% 1 mhos 248 - None None - -
02/23/2017 05:44 Ice Warning 24.8F - 32F 32F 95 1% - - 98% 1 mhos 242 - None None - -
02/23/2017 05:39 Ice Warning 24.8F - 32F 32F 95 1% - - 98% 1 mhos 242 - None None - -
02/23/2017 05:34 Ice Warning 25.0F - 32F 32F 95 1% - - 98% 1 mhos 236 - None None - -
02/23/2017 05:24 Ice Warning 25.0F - 32F 32F 95 1% - - 98% 1 mhos 237 - None None - -
Date/Time
(MST)
Sf
Temp Chem Water Layer Surface Precipitation
Sfc Pvt Sub Frz Factor Pct Dpth DpthThk IcePct Cond Salin FI Type Intens Accum Rate
02/23/2017 05:24 Ice Warning 25.0F - 32F 32F 95 1% - - 98% 1 mhos 237 - None None - -
02/23/2017 05:14 Ice Warning 25.2F - 32F 32F 95 1% - - 98% 1 mhos 231 - Yes - - -
02/23/2017 05:09 Ice Warning 25.2F - 32F 32F 95 1% - - 98% 1 mhos 230 - None None - -
02/23/2017 05:04 Ice Warning 25.3F - 32F 32F 95 1% - - 98% 1 mhos 225 - None None - -
02/23/2017 04:54 Ice Warning 25.5F - 32F 32F 95 1% - - 98% 1 mhos 216 - Yes - - -
02/23/2017 04:54 Ice Warning 25.5F - 32F 32F 95 1% - - 98% 1 mhos 216 - Yes - - -
02/23/2017 04:44 Ice Warning 25.7F - 32F 32F 95 1% - - 98% 1 mhos 215 - Yes - - -
02/23/2017 04:39 Ice Warning 25.7F - 32F 32F 95 1% - - 98% 1 mhos 215 - Yes - - -
02/23/2017 04:34 Ice Warning 25.7F - 32F 32F 95 1% - - 98% 1 mhos 217 - Yes - - -
02/23/2017 04:24 Ice Warning 25.9F - 32F 32F 95 1% - - 98% 1 mhos 234 - Yes - - -
02/23/2017 04:14 Ice Warning 26.1F - 32F 32F 95 1% - - 98% 2 mhos 247 - Yes - - -
02/23/2017 04:09 Ice Warning 26.1F - 32F 32F 95 1% - - 98% 2 mhos 247 - None None - -
02/23/2017 04:03 Ice Warning 26.1F - 32F 32F 95 1% - - 98% 2 mhos 247 - None None - -
02/23/2017 03:54 Ice Warning 25.9F - 32F 32F 95 1% - - 98% 2 mhos 248 - None None - -
02/23/2017 03:53 Ice Warning 25.9F - 32F 32F 95 1% - - 98% 2 mhos 248 - None None - -
Date/Time
(MST)
Sf
Temp Chem Water Layer Surface Precipitation
Sfc Pvt Sub Frz Factor Pct Dpth DpthThk IcePct Cond Salin FI Type Intens Accum Rate
02/23/2017 03:43 Ice Warning 25.7F - 32F 32F 95 1% - - 98% 1 mhos 246 - None None - -
02/23/2017 03:33 Ice Warning 25.5F - 32F 32F 95 1% - - 98% 1 mhos 248 - None None - -
02/23/2017 03:24 Ice Warning 25.3F - 32F 32F 95 1% - - 98% 1 mhos 245 - None None - -
02/23/2017 03:23 Ice Warning 25.3F - 32F 32F 95 1% - - 98% 1 mhos 246 - None None - -
02/23/2017 03:13 Ice Warning 25.3F - 32F 32F 95 1% - - 98% 1 mhos 243 - None None - -
02/23/2017 03:09 Ice Warning 25.2F - 32F 32F 95 1% - - 98% 1 mhos 243 - Yes - - -
02/23/2017 03:03 Ice Warning 25.2F - 32F 32F 95 1% - - 98% 1 mhos 243 - None None - -
02/23/2017 02:54 Ice Warning 25.5F - 32F 32F 95 1% - - 98% 1 mhos 237 - Yes - - -
02/23/2017 02:53 Ice Warning 25.5F - 32F 32F 95 1% - - 98% 1 mhos 238 - None None - -
02/23/2017 02:43 Ice Warning 25.9F - 32F 32F 95 1% - - 98% 1 mhos 231 - None None - -
02/23/2017 02:39 Ice Warning 26.1F - 32F 32F 95 1% - - 98% 1 mhos 225 - None None - -
02/23/2017 02:33 Ice Warning 26.1F - 32F 32F 95 1% - - 98% 1 mhos 225 - None None - -
02/23/2017 02:24 Ice Warning 26.4F - 32F 32F 95 1% - - 98% 1 mhos 218 - None None - -
02/23/2017 02:23 Ice Warning 26.4F - 32F 32F 95 1% - - 98% 1 mhos 218 - None None - -
02/23/2017 02:13 Ice Warning 26.4F - 32F 32F 95 1% - - 98% 1 mhos 214 - None None - -
Date/Time
(MST)
Sf
Temp Chem Water Layer Surface Precipitation
Sfc Pvt Sub Frz Factor Pct Dpth DpthThk IcePct Cond Salin FI Type Intens Accum Rate
02/23/2017 02:09 Ice Warning 26.4F - 32F 32F 95 1% - - 98% 1 mhos 211 - None None - -
02/23/2017 02:03 Ice Warning 26.4F - 32F 32F 90 1% - - 98% 1 mhos 210 - None None - -
02/23/2017 01:54 Ice Warning 26.4F - 32F 32F 90 1% - - 98% 1 mhos 207 - None None - -
02/23/2017 01:53 Ice Warning 26.6F - 32F 32F 90 1% - - 98% 1 mhos 203 - None None - -
02/23/2017 01:43 Ice Warning 26.6F - 32F 32F 90 1% - - 98% 1 mhos 200 - None None - -
02/23/2017 01:39 Ice Warning 26.6F - 32F 32F 90 1% - - 98% 1 mhos 198 - None None - -
02/23/2017 01:33 Ice Warning 26.6F - 32F 32F 90 1% - - 98% 1 mhos 197 - None None - -
02/23/2017 01:24 Ice Warning 26.6F - 32F 32F 85 1% - - 98% 1 mhos 193 - None None - -
02/23/2017 01:23 Ice Warning 26.6F - 32F 32F 85 1% - - 98% 1 mhos 193 - None None - -
02/23/2017 01:13 Ice Warning 26.6F - 32F 32F 85 1% - - 98% 1 mhos 189 - None None - -
02/23/2017 01:09 Ice Warning 26.6F - 32F 32F 85 1% - - 98% 1 mhos 188 - None None - -
02/23/2017 01:03 Ice Warning 26.8F - 32F 32F 80 1% - - 98% 1 mhos 183 - None None - -
Change End Date:

Copyright © 1998-2015 Vaisala, Inc.
All Rights Reserved
Send comments about the data to:
SCAN Web ® is a registered trademark of Vaisala, Inc.
SCAN Web Version 6.0